Location: Salamanca
(40.9670°N, 5.6500°W)
Time: 07:07:18
(UTC+02:00)

ISS - Visible Passes

Search period start: 26 September 2018 00:00
Search period end: 06 October 2018 00:00
Orbit: 403 x 408 km, 51.6° (Epoch: 26 September)

Date Brightness Start Highest point End Pass type
(mag) Time Alt. Az. Time Alt. Az. Time Alt. Az.
26 Sep -1.6 21:44:33 10° WNW 21:47:13 22° NNW 21:49:04 14° NNE visible
27 Sep -2.2 20:52:09 10° W 20:55:08 31° NNW 20:58:08 10° NE visible
27 Sep -0.9 22:30:39 10° NW 22:31:56 13° NNW 22:31:56 13° NNW visible
28 Sep -1.2 21:38:06 10° NW 21:40:13 16° NNW 21:42:03 11° NNE visible
29 Sep -1.5 20:45:32 10° WNW 20:48:02 20° NNW 20:50:32 10° NNE visible
29 Sep -0.8 22:23:52 10° NNW 22:24:47 12° NNW 22:24:47 12° NNW visible
30 Sep -1.2 21:31:33 10° NW 21:33:14 13° N 21:34:48 10° NNE visible
01 Oct -1.2 20:39:00 10° NW 20:40:59 15° N 20:42:57 10° NNE visible
01 Oct -0.9 22:16:34 10° NNW 22:17:27 13° NNW 22:17:27 13° NNW visible
02 Oct -1.3 21:24:34 10° NNW 21:26:15 13° N 21:27:26 11° NNE visible
03 Oct -1.3 20:32:19 10° NNW 20:33:57 13° N 20:35:34 10° NNE visible
03 Oct -1.2 22:08:55 10° NNW 22:10:04 16° NNW 22:10:04 16° NNW visible
04 Oct -1.6 21:17:04 10° NNW 21:19:11 16° NNE 21:20:03 14° NNE visible
05 Oct -1.4 20:25:07 10° NNW 20:26:53 14° N 20:28:38 10° NE visible
05 Oct -1.6 22:01:10 10° NW 22:02:43 21° NNW 22:02:43 21° NNW visible
